Tracking 28888 objects as of 22-May-2024
HD Live streaming from Space Station
objects crossing your sky now

STARLINK-30113

Track STARLINK-30113 now!
10-day predictions
STARLINK-30113 is classified as:


NORAD ID: 56291
Int'l Code: 2023-056F
Perigee: 565.0 km
Apogee: 568.0 km
Inclination: 43.0 °
Period: 95.8 minutes
Semi major axis: 6937 km
RCS: Unknown
Launch date: April 19, 2023
Source: United States (US)
Launch site: AIR FORCE EASTERN TEST RANGE (AFETR)
Your satellite tracking list
Your tracking list is empty




NASA's NSSDC Master Catalog

Two Line Element Set (TLE):
1 56291U 23056F   24143.13605387 -.00036466  00000-0 -27049-2 0  9997
2 56291  43.0007 177.6000 0002097 304.6639  55.4006 15.02444173 60679
Source of the keplerian elements: AFSPC